Find Starlink 1545

NORAD ID: 46156 Int'l Des: 2020-057 Owner: SPXS Country: US Constellation: starlink operational
LEOCIRCULAR

实时位置

正在加载3D地球...

关于 Starlink 1545

正在加载描述...

即将过境

Passes for default location (London). Set your location on the main map for personalized predictions.

高度历史

Loading altitude history...

两行轨道根数

1 46156U 20057AR 26123.00002315 .00075209 00000-0 53247-3 0 9998
2 46156 53.0410 350.8228 0005334 158.6515 251.7167 15.73313737 5825
Epoch: May 3, 2026 • Age: 15 hours

当前状态

高度 365.1 km
速度 7.69 km/s
星下点 -39.59°S, 134.13°W
发射日期 Aug 18, 2020
运行时间 5.7 years
类型 internet

技术详情

分类 Payload
质量 260.00 kg
干质量 248.00 kg
总质量 260.00 kg
长度 0.20 m
直径 2.80 m
跨度 9.00 m
形状 Box + pan
制造商 SPXS
平台类型 Starlink
阶段状态 In Orbit
所有者/国家 SPXS/US

Most Searched